Year,Month,Day,Hour,Minute,Value (Times are PST for windspeed in km/hr)
2012,03,12,00,00,8.50
2012,03,12,00,01,12.00
2012,03,12,00,02,7.70
2012,03,12,00,03,9.50
2012,03,12,00,04,11.60
2012,03,12,00,05,16.70
2012,03,12,00,06,11.00
2012,03,12,00,07,10.10
2012,03,12,00,08,14.60
2012,03,12,00,09,12.30
2012,03,12,00,10,8.50
2012,03,12,00,11,6.20
2012,03,12,00,12,9.20
2012,03,12,00,13,13.20
2012,03,12,00,14,12.60
2012,03,12,00,15,10.80
2012,03,12,00,16,7.50
2012,03,12,00,17,14.10
2012,03,12,00,18,15.00
2012,03,12,00,19,10.20
2012,03,12,00,20,15.90
2012,03,12,00,21,10.70
2012,03,12,00,22,9.10
2012,03,12,00,23,12.70
2012,03,12,00,24,15.60
2012,03,12,00,25,13.10
2012,03,12,00,26,12.80
2012,03,12,00,27,9.30
2012,03,12,00,28,15.80
2012,03,12,00,29,11.40
2012,03,12,00,30,6.60
2012,03,12,00,31,12.70
2012,03,12,00,32,10.20
2012,03,12,00,33,15.20
2012,03,12,00,34,12.20
2012,03,12,00,35,13.30
2012,03,12,00,36,8.70
2012,03,12,00,37,15.90
2012,03,12,00,38,13.00
2012,03,12,00,39,7.50
2012,03,12,00,40,14.30
2012,03,12,00,41,15.70
2012,03,12,00,42,18.50
2012,03,12,00,43,9.00
2012,03,12,00,44,11.40
2012,03,12,00,45,12.50
2012,03,12,00,46,7.60
2012,03,12,00,47,13.10
2012,03,12,00,48,10.40
2012,03,12,00,49,14.60
2012,03,12,00,50,15.00
2012,03,12,00,51,12.60
2012,03,12,00,52,10.90
2012,03,12,00,53,15.50
2012,03,12,00,54,13.90
2012,03,12,00,55,15.60
2012,03,12,00,56,11.10
2012,03,12,00,57,14.00
2012,03,12,00,58,12.30
2012,03,12,00,59,9.20
2012,03,12,01,00,15.20
2012,03,12,01,01,14.20
2012,03,12,01,02,13.00
2012,03,12,01,03,5.80
2012,03,12,01,04,9.60
2012,03,12,01,05,14.70
2012,03,12,01,06,10.90
2012,03,12,01,07,8.30
2012,03,12,01,08,9.90
2012,03,12,01,09,13.30
2012,03,12,01,10,9.90
2012,03,12,01,11,7.10
2012,03,12,01,12,16.70
2012,03,12,01,13,13.10
2012,03,12,01,14,8.20
2012,03,12,01,15,10.20
2012,03,12,01,16,12.20
2012,03,12,01,17,14.20
2012,03,12,01,18,18.00
2012,03,12,01,19,13.30
2012,03,12,01,20,16.50
2012,03,12,01,21,15.90
2012,03,12,01,22,11.60
2012,03,12,01,23,11.40
2012,03,12,01,24,11.70
2012,03,12,01,25,12.00
2012,03,12,01,26,15.20
2012,03,12,01,27,13.30
2012,03,12,01,28,8.00
2012,03,12,01,29,10.70
2012,03,12,01,30,9.00
2012,03,12,01,31,12.90
2012,03,12,01,32,17.80
2012,03,12,01,33,19.20
2012,03,12,01,34,16.40
2012,03,12,01,35,11.10
2012,03,12,01,36,10.10
2012,03,12,01,37,10.30
2012,03,12,01,38,12.60
2012,03,12,01,39,11.60
2012,03,12,01,40,13.70
2012,03,12,01,41,16.20
2012,03,12,01,42,17.20
2012,03,12,01,43,15.10
2012,03,12,01,44,10.20
2012,03,12,01,45,17.00
2012,03,12,01,46,11.20
2012,03,12,01,47,12.10
2012,03,12,01,48,14.40
2012,03,12,01,49,11.60
2012,03,12,01,50,17.80
2012,03,12,01,51,19.10
2012,03,12,01,52,15.70
2012,03,12,01,53,16.40
2012,03,12,01,54,19.60
2012,03,12,01,55,18.50
2012,03,12,01,56,14.10
2012,03,12,01,57,15.40
2012,03,12,01,58,14.20
2012,03,12,01,59,19.60
2012,03,12,02,00,10.60
2012,03,12,02,01,16.00
2012,03,12,02,02,18.80
2012,03,12,02,03,16.10
2012,03,12,02,04,16.30
2012,03,12,02,05,14.40
2012,03,12,02,06,20.80
2012,03,12,02,07,15.00
2012,03,12,02,08,18.80
2012,03,12,02,09,22.90
2012,03,12,02,10,13.90
2012,03,12,02,11,12.40
2012,03,12,02,12,25.50
2012,03,12,02,13,17.90
2012,03,12,02,14,14.20
2012,03,12,02,15,15.30
2012,03,12,02,16,10.40
2012,03,12,02,17,15.60
2012,03,12,02,18,15.10
2012,03,12,02,19,13.50
2012,03,12,02,20,13.40
2012,03,12,02,21,21.40
2012,03,12,02,22,16.20
2012,03,12,02,23,14.00
2012,03,12,02,24,13.80
2012,03,12,02,25,10.30
2012,03,12,02,26,18.00
2012,03,12,02,27,11.40
2012,03,12,02,28,16.20
2012,03,12,02,29,11.50
2012,03,12,02,30,23.60
2012,03,12,02,31,13.60
2012,03,12,02,32,19.90
2012,03,12,02,33,18.90
2012,03,12,02,34,17.50
2012,03,12,02,35,12.40
2012,03,12,02,36,16.50
2012,03,12,02,37,23.10
2012,03,12,02,38,20.00
2012,03,12,02,39,10.10
2012,03,12,02,40,17.60
2012,03,12,02,41,13.80
2012,03,12,02,42,10.10
2012,03,12,02,43,11.30
2012,03,12,02,44,14.20
2012,03,12,02,45,12.50
2012,03,12,02,46,11.70
2012,03,12,02,47,10.70
2012,03,12,02,48,15.80
2012,03,12,02,49,16.30
2012,03,12,02,50,17.00
2012,03,12,02,51,15.00
2012,03,12,02,52,9.20
2012,03,12,02,53,11.60
2012,03,12,02,54,13.60
2012,03,12,02,55,17.10
2012,03,12,02,56,14.80
2012,03,12,02,57,27.20
2012,03,12,02,58,16.30
2012,03,12,02,59,13.50
2012,03,12,03,00,18.70
2012,03,12,03,01,16.30
2012,03,12,03,02,13.80
2012,03,12,03,03,16.90
2012,03,12,03,04,10.10
2012,03,12,03,05,11.60
2012,03,12,03,06,15.80
2012,03,12,03,07,20.00
2012,03,12,03,08,19.20
2012,03,12,03,09,14.80
2012,03,12,03,10,15.90
2012,03,12,03,11,23.10
2012,03,12,03,12,19.80
2012,03,12,03,13,17.90
2012,03,12,03,14,17.50
2012,03,12,03,15,13.20
2012,03,12,03,16,12.20
2012,03,12,03,17,13.40
2012,03,12,03,18,13.10
2012,03,12,03,19,14.30
2012,03,12,03,20,25.50
2012,03,12,03,21,16.60
2012,03,12,03,22,16.60
2012,03,12,03,23,20.20
2012,03,12,03,24,28.00
2012,03,12,03,25,20.00
2012,03,12,03,26,18.50
2012,03,12,03,27,13.20
2012,03,12,03,28,12.60
2012,03,12,03,29,27.20
2012,03,12,03,30,16.00
2012,03,12,03,31,17.10
2012,03,12,03,32,17.70
2012,03,12,03,33,17.20
2012,03,12,03,34,16.40
2012,03,12,03,35,18.30
2012,03,12,03,36,14.20
2012,03,12,03,37,16.30
2012,03,12,03,38,17.20
2012,03,12,03,39,20.40
2012,03,12,03,40,19.50
2012,03,12,03,41,15.60
2012,03,12,03,42,19.20
2012,03,12,03,43,15.40
2012,03,12,03,44,20.10
2012,03,12,03,45,15.40
2012,03,12,03,46,13.20
2012,03,12,03,47,24.70
2012,03,12,03,48,16.70
2012,03,12,03,49,22.60
2012,03,12,03,50,13.90
2012,03,12,03,51,17.30
2012,03,12,03,52,25.10
2012,03,12,03,53,19.50
2012,03,12,03,54,23.20
2012,03,12,03,55,15.70
2012,03,12,03,56,17.50
2012,03,12,03,57,20.50
2012,03,12,03,58,15.60
2012,03,12,03,59,12.60
2012,03,12,04,00,16.10
2012,03,12,04,01,17.90
2012,03,12,04,02,22.40
2012,03,12,04,03,15.00
2012,03,12,04,04,16.50
2012,03,12,04,05,20.80
2012,03,12,04,06,24.90
2012,03,12,04,07,25.70
2012,03,12,04,08,17.10
2012,03,12,04,09,26.40
2012,03,12,04,10,14.40
2012,03,12,04,11,23.50
2012,03,12,04,12,21.00
2012,03,12,04,13,25.80
2012,03,12,04,14,17.70
2012,03,12,04,15,19.00
2012,03,12,04,16,27.20
2012,03,12,04,17,16.50
2012,03,12,04,18,20.10
2012,03,12,04,19,16.10
2012,03,12,04,20,17.00
2012,03,12,04,21,22.40
2012,03,12,04,22,15.30
2012,03,12,04,23,27.00
2012,03,12,04,24,24.20
2012,03,12,04,25,24.70
2012,03,12,04,26,20.20
2012,03,12,04,27,24.10
2012,03,12,04,28,17.90
2012,03,12,04,29,15.50
2012,03,12,04,30,24.20
2012,03,12,04,31,16.50
2012,03,12,04,32,11.10
2012,03,12,04,33,18.10
2012,03,12,04,34,18.00
2012,03,12,04,35,25.80
2012,03,12,04,36,27.00
2012,03,12,04,37,18.40
2012,03,12,04,38,26.60
2012,03,12,04,39,17.00
2012,03,12,04,40,14.00
2012,03,12,04,41,21.10
2012,03,12,04,42,18.90
2012,03,12,04,43,21.20
2012,03,12,04,44,15.00
2012,03,12,04,45,19.60
2012,03,12,04,46,17.60
2012,03,12,04,47,19.00
2012,03,12,04,48,22.90
2012,03,12,04,49,24.00
2012,03,12,04,50,21.10
2012,03,12,04,51,23.70
2012,03,12,04,52,15.90
2012,03,12,04,53,13.00
2012,03,12,04,54,23.80
2012,03,12,04,55,21.70
2012,03,12,04,56,16.60
2012,03,12,04,57,33.80
2012,03,12,04,58,23.60
2012,03,12,04,59,19.60
2012,03,12,05,00,17.50
2012,03,12,05,01,15.20
2012,03,12,05,02,19.40
2012,03,12,05,03,27.50
2012,03,12,05,04,14.30
2012,03,12,05,05,18.70
2012,03,12,05,06,16.00
2012,03,12,05,07,15.00
2012,03,12,05,08,12.00
2012,03,12,05,09,11.20
2012,03,12,05,10,9.80
2012,03,12,05,11,15.50
2012,03,12,05,12,13.80
2012,03,12,05,13,16.30
2012,03,12,05,14,21.70
2012,03,12,05,15,21.00
2012,03,12,05,16,17.30
2012,03,12,05,17,13.00
2012,03,12,05,18,15.40
2012,03,12,05,19,14.80
2012,03,12,05,20,16.20
2012,03,12,05,21,21.40
2012,03,12,05,22,18.20
2012,03,12,05,23,21.30
2012,03,12,05,24,12.80
2012,03,12,05,25,23.50
2012,03,12,05,26,25.80
2012,03,12,05,27,25.20
2012,03,12,05,28,24.90
2012,03,12,05,29,16.70
2012,03,12,05,30,14.40
2012,03,12,05,31,18.20
2012,03,12,05,32,19.60
2012,03,12,05,33,19.40
2012,03,12,05,34,22.10
2012,03,12,05,35,22.50
2012,03,12,05,36,21.80
2012,03,12,05,37,23.60
2012,03,12,05,38,23.00
2012,03,12,05,39,24.40
2012,03,12,05,40,17.50
2012,03,12,05,41,22.00
2012,03,12,05,42,11.70
2012,03,12,05,43,18.90
2012,03,12,05,44,20.80
2012,03,12,05,45,15.50
2012,03,12,05,46,18.80
2012,03,12,05,47,19.70
2012,03,12,05,48,18.30
2012,03,12,05,49,24.50
2012,03,12,05,50,22.90
2012,03,12,05,51,25.00
2012,03,12,05,52,20.20
2012,03,12,05,53,20.00
2012,03,12,05,54,17.60
2012,03,12,05,55,24.60
2012,03,12,05,56,25.30
2012,03,12,05,57,31.80
2012,03,12,05,58,26.10
2012,03,12,05,59,22.90
2012,03,12,06,00,21.50
2012,03,12,06,01,16.00
2012,03,12,06,02,20.60
2012,03,12,06,03,20.70
2012,03,12,06,04,33.40
2012,03,12,06,05,17.60
2012,03,12,06,06,20.50
2012,03,12,06,07,28.20
2012,03,12,06,08,21.40
2012,03,12,06,09,14.30
2012,03,12,06,10,19.30
2012,03,12,06,11,19.80
2012,03,12,06,12,20.00
2012,03,12,06,13,17.40
2012,03,12,06,14,23.60
2012,03,12,06,15,15.90
2012,03,12,06,16,20.00
2012,03,12,06,17,16.70
2012,03,12,06,18,21.60
2012,03,12,06,19,26.70
2012,03,12,06,20,21.90
2012,03,12,06,21,24.30
2012,03,12,06,22,22.20
2012,03,12,06,23,16.50
2012,03,12,06,24,24.60
2012,03,12,06,25,20.50
2012,03,12,06,26,24.60
2012,03,12,06,27,18.20
2012,03,12,06,28,18.60
2012,03,12,06,29,22.70
2012,03,12,06,30,27.40
2012,03,12,06,31,18.80
2012,03,12,06,32,23.60
2012,03,12,06,33,18.20
2012,03,12,06,34,24.30
2012,03,12,06,35,29.30
2012,03,12,06,36,19.20
2012,03,12,06,37,15.50
2012,03,12,06,38,18.60
2012,03,12,06,39,11.70
2012,03,12,06,40,15.90
2012,03,12,06,41,26.90
2012,03,12,06,42,25.40
2012,03,12,06,43,22.90
2012,03,12,06,44,21.60
2012,03,12,06,45,22.50
2012,03,12,06,46,17.70
2012,03,12,06,47,19.60
2012,03,12,06,48,27.10
2012,03,12,06,49,17.10
2012,03,12,06,50,16.60
2012,03,12,06,51,23.90
2012,03,12,06,52,23.00
2012,03,12,06,53,15.90
2012,03,12,06,54,28.20
2012,03,12,06,55,18.40
2012,03,12,06,56,19.20
2012,03,12,06,57,22.10
2012,03,12,06,58,27.10
2012,03,12,06,59,19.20
2012,03,12,07,00,22.70
2012,03,12,07,01,23.10
2012,03,12,07,02,22.30
2012,03,12,07,03,12.80
2012,03,12,07,04,30.50
2012,03,12,07,05,22.80
2012,03,12,07,06,25.00
2012,03,12,07,07,24.50
2012,03,12,07,08,17.80
2012,03,12,07,09,18.90
2012,03,12,07,10,28.00
2012,03,12,07,11,19.90
2012,03,12,07,12,22.70
2012,03,12,07,13,19.40
2012,03,12,07,14,24.60
2012,03,12,07,15,21.00
2012,03,12,07,16,18.30
2012,03,12,07,17,18.40
2012,03,12,07,18,23.50
2012,03,12,07,19,26.20
2012,03,12,07,20,21.50
2012,03,12,07,21,20.90
2012,03,12,07,22,13.10
2012,03,12,07,23,13.00
2012,03,12,07,24,15.90
2012,03,12,07,25,13.00
2012,03,12,07,26,17.90
2012,03,12,07,27,16.90
2012,03,12,07,28,24.70
2012,03,12,07,29,19.20
2012,03,12,07,30,20.00
2012,03,12,07,31,22.30
2012,03,12,07,32,23.90
2012,03,12,07,33,24.90
2012,03,12,07,34,20.70
2012,03,12,07,35,27.20
2012,03,12,07,36,14.50
2012,03,12,07,37,19.40
2012,03,12,07,38,16.10
2012,03,12,07,39,15.60
2012,03,12,07,40,18.90
2012,03,12,07,41,18.40
2012,03,12,07,42,22.50
2012,03,12,07,43,20.50
2012,03,12,07,44,21.00
2012,03,12,07,45,25.90
2012,03,12,07,46,17.20
2012,03,12,07,47,18.10
2012,03,12,07,48,15.00
2012,03,12,07,49,14.40
2012,03,12,07,50,16.30
2012,03,12,07,51,23.60
2012,03,12,07,52,22.70
2012,03,12,07,53,18.30
2012,03,12,07,54,24.50
2012,03,12,07,55,20.80
2012,03,12,07,56,28.00
2012,03,12,07,57,20.50
2012,03,12,07,58,22.10
2012,03,12,07,59,16.20
2012,03,12,08,00,24.70
2012,03,12,08,01,24.10
2012,03,12,08,02,16.90
2012,03,12,08,03,17.10
2012,03,12,08,04,16.80
2012,03,12,08,05,17.10
2012,03,12,08,06,18.20
2012,03,12,08,07,18.80
2012,03,12,08,08,18.80
2012,03,12,08,09,20.90
2012,03,12,08,10,22.60
2012,03,12,08,11,17.10
2012,03,12,08,12,21.20
2012,03,12,08,13,21.10
2012,03,12,08,14,18.80
2012,03,12,08,15,15.10
2012,03,12,08,16,11.60
2012,03,12,08,17,20.00
2012,03,12,08,18,15.80
2012,03,12,08,19,27.90
2012,03,12,08,20,23.40
2012,03,12,08,21,20.90
2012,03,12,08,22,19.30
2012,03,12,08,23,17.60
2012,03,12,08,24,23.00
2012,03,12,08,25,27.90
2012,03,12,08,26,18.50
2012,03,12,08,27,16.10
2012,03,12,08,28,16.30
2012,03,12,08,29,14.60
2012,03,12,08,30,19.70
2012,03,12,08,31,20.40
2012,03,12,08,32,21.30
2012,03,12,08,33,15.90
2012,03,12,08,34,26.40
2012,03,12,08,35,29.00
2012,03,12,08,36,20.00
2012,03,12,08,37,18.40
2012,03,12,08,38,16.30
2012,03,12,08,39,17.50
2012,03,12,08,40,29.80
2012,03,12,08,41,21.80
2012,03,12,08,42,25.00
2012,03,12,08,43,23.50
2012,03,12,08,44,27.60
2012,03,12,08,45,24.00
2012,03,12,08,46,23.50
2012,03,12,08,47,20.90
2012,03,12,08,48,19.80
2012,03,12,08,49,27.40
2012,03,12,08,50,18.20
2012,03,12,08,51,24.10
2012,03,12,08,52,25.20
2012,03,12,08,53,21.80
2012,03,12,08,54,22.30
2012,03,12,08,55,15.30
2012,03,12,08,56,26.40
2012,03,12,08,57,18.10
2012,03,12,08,58,17.00
2012,03,12,08,59,20.00
2012,03,12,09,00,21.40
2012,03,12,09,01,19.80
2012,03,12,09,02,20.60
2012,03,12,09,03,25.50
2012,03,12,09,04,24.70
2012,03,12,09,05,18.30
2012,03,12,09,06,19.20
2012,03,12,09,07,26.30
2012,03,12,09,08,29.60
2012,03,12,09,09,31.60
2012,03,12,09,10,19.40
2012,03,12,09,11,15.90
2012,03,12,09,12,21.30
2012,03,12,09,13,20.60
2012,03,12,09,14,23.30
2012,03,12,09,15,20.20
2012,03,12,09,16,23.90
2012,03,12,09,17,26.60
2012,03,12,09,18,24.50
2012,03,12,09,19,24.80
2012,03,12,09,20,23.50
2012,03,12,09,21,20.70
2012,03,12,09,22,20.80
2012,03,12,09,23,28.40
2012,03,12,09,24,28.30
2012,03,12,09,25,19.40
2012,03,12,09,26,15.80
2012,03,12,09,27,15.30
2012,03,12,09,28,30.10
2012,03,12,09,29,26.50
2012,03,12,09,30,22.30
2012,03,12,09,31,17.10
2012,03,12,09,32,19.00
2012,03,12,09,33,21.30
2012,03,12,09,34,28.50
2012,03,12,09,35,31.00
2012,03,12,09,36,24.90
2012,03,12,09,37,22.00
2012,03,12,09,38,28.20
2012,03,12,09,39,35.30
2012,03,12,09,40,31.90
2012,03,12,09,41,20.70
2012,03,12,09,42,27.80
2012,03,12,09,43,22.90
2012,03,12,09,44,25.10
2012,03,12,09,45,29.00
2012,03,12,09,46,19.80
2012,03,12,09,47,22.50
2012,03,12,09,48,17.80
2012,03,12,09,49,24.50
2012,03,12,09,50,23.50
2012,03,12,09,51,20.30
2012,03,12,09,52,26.30
2012,03,12,09,53,19.00
2012,03,12,09,54,15.70
2012,03,12,09,55,29.70
2012,03,12,09,56,26.60
2012,03,12,09,57,24.40
2012,03,12,09,58,22.50
2012,03,12,09,59,31.30
2012,03,12,10,00,18.40
2012,03,12,10,01,25.30
2012,03,12,10,02,23.70
2012,03,12,10,03,17.80
2012,03,12,10,04,20.60
2012,03,12,10,05,23.50
2012,03,12,10,06,18.70
2012,03,12,10,07,22.10
2012,03,12,10,08,20.50
2012,03,12,10,09,24.50
2012,03,12,10,10,23.80
2012,03,12,10,11,15.60
2012,03,12,10,12,16.80
2012,03,12,10,13,21.20
2012,03,12,10,14,17.50
2012,03,12,10,15,19.60
2012,03,12,10,16,22.60
2012,03,12,10,17,19.50
2012,03,12,10,18,16.40
2012,03,12,10,19,20.30
2012,03,12,10,20,22.70
2012,03,12,10,21,17.50
2012,03,12,10,22,23.10
2012,03,12,10,23,22.10
2012,03,12,10,24,21.20
2012,03,12,10,25,16.70
2012,03,12,10,26,20.20
2012,03,12,10,27,20.00
2012,03,12,10,28,21.20
2012,03,12,10,29,13.20
2012,03,12,10,30,29.80
2012,03,12,10,31,19.40
2012,03,12,10,32,21.40
2012,03,12,10,33,19.20
2012,03,12,10,34,23.20
2012,03,12,10,35,21.80
2012,03,12,10,36,16.50
2012,03,12,10,37,20.00
2012,03,12,10,38,18.80
2012,03,12,10,39,18.20
2012,03,12,10,40,21.10
2012,03,12,10,41,28.30
2012,03,12,10,42,19.50
2012,03,12,10,43,17.20
2012,03,12,10,44,17.60
2012,03,12,10,45,20.30
2012,03,12,10,46,17.10
2012,03,12,10,47,19.20
2012,03,12,10,48,17.90
2012,03,12,10,49,12.60
2012,03,12,10,50,13.50
2012,03,12,10,51,14.10
2012,03,12,10,52,19.50
2012,03,12,10,53,19.70
2012,03,12,10,54,24.10
2012,03,12,10,55,19.00
2012,03,12,10,56,18.20
2012,03,12,10,57,13.40
2012,03,12,10,58,13.00
2012,03,12,10,59,9.80
2012,03,12,11,00,12.60
2012,03,12,11,01,13.50
2012,03,12,11,02,14.80
2012,03,12,11,03,19.20
2012,03,12,11,04,19.10
2012,03,12,11,05,18.40
2012,03,12,11,06,10.10
2012,03,12,11,07,7.90
2012,03,12,11,08,10.90
2012,03,12,11,09,12.20
2012,03,12,11,10,14.90
2012,03,12,11,11,13.80
2012,03,12,11,12,11.80
2012,03,12,11,13,10.40
2012,03,12,11,14,15.10
2012,03,12,11,15,13.50
2012,03,12,11,16,12.60
2012,03,12,11,17,17.70
2012,03,12,11,18,17.90
2012,03,12,11,19,17.80
2012,03,12,11,20,13.70
2012,03,12,11,21,11.90
2012,03,12,11,22,13.60
2012,03,12,11,23,13.20
2012,03,12,11,24,17.40
2012,03,12,11,25,11.30
2012,03,12,11,26,14.40
2012,03,12,11,27,13.40
2012,03,12,11,28,14.90
2012,03,12,11,29,14.70
2012,03,12,11,30,17.40
2012,03,12,11,31,14.60
2012,03,12,11,32,16.70
2012,03,12,11,33,15.90
2012,03,12,11,34,12.80
2012,03,12,11,35,12.70
2012,03,12,11,36,8.50
2012,03,12,11,37,11.90
2012,03,12,11,38,14.10
2012,03,12,11,39,10.60
2012,03,12,11,40,9.10
2012,03,12,11,41,8.50
2012,03,12,11,42,10.10
2012,03,12,11,43,14.20
2012,03,12,11,44,14.00
2012,03,12,11,45,9.80
2012,03,12,11,46,11.10
2012,03,12,11,47,15.90
2012,03,12,11,48,8.80
2012,03,12,11,49,14.20
2012,03,12,11,50,11.60
2012,03,12,11,51,12.80
2012,03,12,11,52,14.50
2012,03,12,11,53,15.30
2012,03,12,11,54,10.30
2012,03,12,11,55,11.70
2012,03,12,11,56,11.00
2012,03,12,11,57,11.10
2012,03,12,11,58,14.40
2012,03,12,11,59,13.90
2012,03,12,12,00,8.10
2012,03,12,12,01,9.30
2012,03,12,12,02,9.60
2012,03,12,12,03,11.20
2012,03,12,12,04,8.60
2012,03,12,12,05,8.50
2012,03,12,12,06,11.80
2012,03,12,12,07,7.70
2012,03,12,12,08,11.00
2012,03,12,12,09,7.60
2012,03,12,12,10,9.70
2012,03,12,12,11,9.90
2012,03,12,12,12,11.50
2012,03,12,12,13,7.80
2012,03,12,12,14,7.60
2012,03,12,12,15,10.70
2012,03,12,12,16,12.30
2012,03,12,12,17,8.70
2012,03,12,12,18,10.90
2012,03,12,12,19,11.30
2012,03,12,12,20,11.90
2012,03,12,12,21,9.30
2012,03,12,12,22,6.60
2012,03,12,12,23,6.70
2012,03,12,12,24,9.70
2012,03,12,12,25,4.60
2012,03,12,12,26,6.40
2012,03,12,12,27,9.10
2012,03,12,12,28,6.80
2012,03,12,12,29,7.20
2012,03,12,12,30,9.00
2012,03,12,12,31,12.00
2012,03,12,12,32,6.80
2012,03,12,12,33,10.50
2012,03,12,12,34,10.30
2012,03,12,12,35,9.40
2012,03,12,12,36,8.00
2012,03,12,12,37,7.10
2012,03,12,12,38,10.70
2012,03,12,12,39,9.30
2012,03,12,12,40,7.60
2012,03,12,12,41,11.00
2012,03,12,12,42,8.70
2012,03,12,12,43,7.60
2012,03,12,12,44,7.20
2012,03,12,12,45,5.00
2012,03,12,12,46,3.20
2012,03,12,12,47,4.10
2012,03,12,12,48,2.80
2012,03,12,12,49,4.60
2012,03,12,12,50,1.40
2012,03,12,12,51,3.90
2012,03,12,12,52,3.10
2012,03,12,12,53,4.60
2012,03,12,12,54,3.50
2012,03,12,12,55,0.20
2012,03,12,12,56,0.30
2012,03,12,12,57,1.80
2012,03,12,12,58,1.40
2012,03,12,12,59,3.00
2012,03,12,13,00,3.60
2012,03,12,13,01,4.80
2012,03,12,13,02,3.60
2012,03,12,13,03,0.60
2012,03,12,13,04,1.40
2012,03,12,13,05,2.20
2012,03,12,13,06,3.00
2012,03,12,13,07,3.80
2012,03,12,13,08,3.10
2012,03,12,13,09,1.60
2012,03,12,13,10,2.20
2012,03,12,13,11,3.50
2012,03,12,13,12,3.20
2012,03,12,13,13,2.60
2012,03,12,13,14,3.40
2012,03,12,13,15,3.10
2012,03,12,13,16,1.40
2012,03,12,13,17,0.40
2012,03,12,13,18,1.10
2012,03,12,13,19,2.10
2012,03,12,13,20,2.20
2012,03,12,13,21,0.80
2012,03,12,13,22,0.40
2012,03,12,13,23,4.10
2012,03,12,13,24,3.90
2012,03,12,13,25,2.80
2012,03,12,13,26,2.30
2012,03,12,13,27,0.50
2012,03,12,13,28,0.10
2012,03,12,13,29,0.80
2012,03,12,13,30,0.20
2012,03,12,13,31,2.10
2012,03,12,13,32,2.90
2012,03,12,13,33,2.70
2012,03,12,13,34,0.70
2012,03,12,13,35,0.80
2012,03,12,13,36,0.20
2012,03,12,13,37,0.00
2012,03,12,13,38,0.70
2012,03,12,13,39,3.10
2012,03,12,13,40,0.90
2012,03,12,13,41,0.20
2012,03,12,13,42,1.20
2012,03,12,13,43,0.10
2012,03,12,13,44,0.60
2012,03,12,13,45,1.90
2012,03,12,13,46,1.90
2012,03,12,13,47,1.10
2012,03,12,13,48,2.70
2012,03,12,13,49,1.60
2012,03,12,13,50,0.80
2012,03,12,13,51,0.10
2012,03,12,13,52,0.10
2012,03,12,13,53,0.10
2012,03,12,13,54,1.30
2012,03,12,13,55,1.30
2012,03,12,13,56,1.00
2012,03,12,13,57,0.00
2012,03,12,13,58,1.10
2012,03,12,13,59,1.60
2012,03,12,14,00,0.20
2012,03,12,14,01,1.00
2012,03,12,14,02,1.00
2012,03,12,14,03,0.20
2012,03,12,14,04,0.10
2012,03,12,14,05,0.00
2012,03,12,14,06,0.60
2012,03,12,14,07,0.00
2012,03,12,14,08,0.10
2012,03,12,14,09,0.00
2012,03,12,14,10,0.40
2012,03,12,14,11,1.80
2012,03,12,14,12,0.00
2012,03,12,14,13,0.00
2012,03,12,14,14,0.10
2012,03,12,14,15,0.00
2012,03,12,14,16,0.00
2012,03,12,14,17,0.00
2012,03,12,14,18,0.00
2012,03,12,14,19,0.00
2012,03,12,14,20,0.20
2012,03,12,14,21,0.00
2012,03,12,14,22,0.00
2012,03,12,14,23,0.00
2012,03,12,14,24,0.00
2012,03,12,14,25,0.00
2012,03,12,14,26,0.00
2012,03,12,14,27,0.00
2012,03,12,14,28,0.00
2012,03,12,14,29,0.00
2012,03,12,14,30,0.00
2012,03,12,14,31,0.20
2012,03,12,14,32,0.20
2012,03,12,14,33,1.30
2012,03,12,14,34,0.70
2012,03,12,14,35,3.10
2012,03,12,14,36,1.80
2012,03,12,14,37,1.10
2012,03,12,14,38,1.10
2012,03,12,14,39,0.90
2012,03,12,14,40,1.40
2012,03,12,14,41,2.30
2012,03,12,14,42,2.30
2012,03,12,14,43,0.90
2012,03,12,14,44,1.80
2012,03,12,14,45,0.70
2012,03,12,14,46,0.60
2012,03,12,14,47,0.00
2012,03,12,14,48,0.00
2012,03,12,14,49,0.20
2012,03,12,14,50,0.00
2012,03,12,14,51,0.00
2012,03,12,14,52,0.30
2012,03,12,14,53,0.00
2012,03,12,14,54,0.00
2012,03,12,14,55,0.00
2012,03,12,14,56,0.10
2012,03,12,14,57,0.20
2012,03,12,14,58,0.40
2012,03,12,14,59,0.10
2012,03,12,15,00,0.20
2012,03,12,15,01,0.10
2012,03,12,15,02,0.40
2012,03,12,15,03,0.20
2012,03,12,15,04,0.00
2012,03,12,15,05,0.70
2012,03,12,15,06,2.30
2012,03,12,15,07,0.20
2012,03,12,15,08,0.80
2012,03,12,15,09,1.00
2012,03,12,15,10,0.00
2012,03,12,15,11,0.10
2012,03,12,15,12,0.00
2012,03,12,15,13,0.00
2012,03,12,15,14,0.00
2012,03,12,15,15,0.00
2012,03,12,15,16,0.00
2012,03,12,15,17,0.00
2012,03,12,15,18,0.10
2012,03,12,15,19,0.20
2012,03,12,15,20,1.00
2012,03,12,15,21,0.60
2012,03,12,15,22,0.20
2012,03,12,15,23,0.20
2012,03,12,15,24,0.00
2012,03,12,15,25,0.00
2012,03,12,15,26,0.00
2012,03,12,15,27,0.00
2012,03,12,15,28,0.00
2012,03,12,15,29,0.00
2012,03,12,15,30,0.00
2012,03,12,15,31,0.00
2012,03,12,15,32,0.00
2012,03,12,15,33,0.00
2012,03,12,15,34,0.00
2012,03,12,15,35,0.00
2012,03,12,15,36,0.00
2012,03,12,15,37,0.00
2012,03,12,15,38,0.00
2012,03,12,15,39,0.10
2012,03,12,15,40,0.00
2012,03,12,15,41,0.00
2012,03,12,15,42,0.00
2012,03,12,15,43,0.00
2012,03,12,15,44,0.00
2012,03,12,15,45,0.00
2012,03,12,15,46,0.00
2012,03,12,15,47,0.00
2012,03,12,15,48,0.00
2012,03,12,15,49,0.00
2012,03,12,15,50,0.00
2012,03,12,15,51,0.10
2012,03,12,15,52,0.00
2012,03,12,15,53,0.00
2012,03,12,15,54,0.00
2012,03,12,15,55,0.00
2012,03,12,15,56,0.00
2012,03,12,15,57,0.00
2012,03,12,15,58,0.00
2012,03,12,15,59,1.00
2012,03,12,16,00,0.20
2012,03,12,16,01,0.00
2012,03,12,16,02,0.00
2012,03,12,16,03,0.00
2012,03,12,16,04,0.00
2012,03,12,16,05,0.00
2012,03,12,16,06,0.30
2012,03,12,16,07,0.00
2012,03,12,16,08,0.00
2012,03,12,16,09,0.00
2012,03,12,16,10,0.00
2012,03,12,16,11,0.00
2012,03,12,16,12,0.00
2012,03,12,16,13,0.00
2012,03,12,16,14,0.00
2012,03,12,16,15,0.00
2012,03,12,16,16,0.00
2012,03,12,16,17,0.00
2012,03,12,16,18,0.00
2012,03,12,16,19,0.00
2012,03,12,16,20,0.00
2012,03,12,16,21,0.00
2012,03,12,16,22,0.00
2012,03,12,16,23,0.00
2012,03,12,16,24,0.00
2012,03,12,16,25,0.00
2012,03,12,16,26,0.00
2012,03,12,16,27,0.00
2012,03,12,16,28,0.00
2012,03,12,16,29,0.00
2012,03,12,16,30,0.00
2012,03,12,16,31,0.00
2012,03,12,16,32,0.00
2012,03,12,16,33,0.00
2012,03,12,16,34,0.00
2012,03,12,16,35,0.00
2012,03,12,16,36,0.00
2012,03,12,16,37,0.00
2012,03,12,16,38,0.10
2012,03,12,16,39,0.10
2012,03,12,16,40,0.00
2012,03,12,16,41,0.00
2012,03,12,16,42,0.00
2012,03,12,16,43,0.00
2012,03,12,16,44,0.00
2012,03,12,16,45,0.00
2012,03,12,16,46,0.00
2012,03,12,16,47,0.00
2012,03,12,16,48,0.00
2012,03,12,16,49,0.00
2012,03,12,16,50,0.00
2012,03,12,16,51,0.00
2012,03,12,16,52,0.00
2012,03,12,16,53,0.00
2012,03,12,16,54,0.00
2012,03,12,16,55,0.00
2012,03,12,16,56,0.00
2012,03,12,16,57,0.00
2012,03,12,16,58,0.00
2012,03,12,16,59,0.00
2012,03,12,17,00,0.00
2012,03,12,17,01,0.10
2012,03,12,17,02,0.00
2012,03,12,17,03,0.00
2012,03,12,17,04,0.00
2012,03,12,17,05,0.00
2012,03,12,17,06,0.00
2012,03,12,17,07,0.00
2012,03,12,17,08,0.00
2012,03,12,17,09,0.00
2012,03,12,17,10,0.00
2012,03,12,17,11,0.00
2012,03,12,17,12,0.00
2012,03,12,17,13,0.10
2012,03,12,17,14,0.10
2012,03,12,17,15,0.00
2012,03,12,17,16,0.00
2012,03,12,17,17,0.00
2012,03,12,17,18,0.00
2012,03,12,17,19,0.00
2012,03,12,17,20,0.00
2012,03,12,17,21,0.10
2012,03,12,17,22,0.00
2012,03,12,17,23,0.00
2012,03,12,17,24,0.00
2012,03,12,17,25,0.00
2012,03,12,17,26,0.00
2012,03,12,17,27,0.00
2012,03,12,17,28,0.00
2012,03,12,17,29,0.00
2012,03,12,17,30,0.00
2012,03,12,17,31,0.00
2012,03,12,17,32,0.00
2012,03,12,17,33,0.00
2012,03,12,17,34,0.00